Regional Weather Roundup
Issued by NWS

Home | Current Version | Previous Version | Text Only | Print | Product List | Glossary On
Versions: 1 2 3 4 5 6 7 8 9 10 11 12 13 14 15 16 17 18 19 20 21 22 23 24 25 26 27 28 29 30 31 32 33 34 35 36 37 38 39 40 41 42 43 44 45 46 47 48 49 50
000
ASUS45 KBOI 221510
RWRID

IDAHO REGIONAL WEATHER ROUNDUP
NATIONAL WEATHER SERVICE BOISE ID
900 AM MDT SAT JUL 22 2017

NOTE: "FAIR" INDICATES FEW OR NO CLOUDS BELOW 12000 FEET
WITH NO SIGNIFICANT WEATHER AND/OR OBSTRUCTIONS TO VISIBILITY

IDZ012-014-221600-
SOUTHWEST IDAHO


CITY           SKY/WX    TMP DP  RH WIND       PRES   REMARKS
BOISE          SUNNY     67  43  41 CALM      30.15R
CALDWELL       SUNNY     71  39  31 W10       30.15R
MOUNTAIN HOME  SUNNY     74  40  28 NW16      30.13R
$$

IDZ016-017-221600-
SOUTHCENTRAL IDAHO


CITY           SKY/WX    TMP DP  RH WIND       PRES   REMARKS
BURLEY         SUNNY     66  43  43 W5        30.19R
JEROME         SUNNY     66  43  43 S7        30.20R
TWIN FALLS     SUNNY     72  39  30 SW10      30.20R
$$

IDZ019>023-221600-
SOUTHEAST IDAHO


CITY           SKY/WX    TMP DP  RH WIND       PRES   REMARKS
IDAHO FALLS    SUNNY     60  45  57 VRB3      30.23R
POCATELLO      SUNNY     72  35  25 SW9       30.22R
REXBURG        SUNNY     62  44  51 CALM      30.24R
$$

IDZ006-010-011-018-031-032-221600-
CENTRAL IDAHO MOUNTAINS


CITY           SKY/WX    TMP DP  RH WIND       PRES   REMARKS
MCCALL         SUNNY     61  40  45 CALM      30.26R
HAILEY         SUNNY     63  37  39 NW6       30.27R
STANLEY          N/A     51  34  52 CALM      30.38R
SALMON         NOT AVBL
CHALLIS        SUNNY     62  39  42 CALM      30.29R
$$

IDZ002-004-006-007-026-221600-
NORTHERN IDAHO


CITY           SKY/WX    TMP DP  RH WIND       PRES   REMARKS
LEWISTON       SUNNY     66  45  46 NE5       30.19R
LOWELL           N/A     57  47  69 CALM      30.25R
COEUR D`ALENE  SUNNY     66  48  52 S8        30.20R
MULLAN PASS    SUNNY     59  34  39 CALM      30.34R
$$



USA.gov is the U.S. government's official web portal to all federal, state and local government web resources and services.